COSMOS 2212

导读

COSMOS 2212是独联体(CIS)1992年10月20日发射的“宇宙”系列卫星,延续苏联空间卫星研发脉络,属于军用航天任务范畴。“宇宙”系列多承担军事侦察、技术试验等保密任务,该卫星发射见证了苏联解体后独联体空间活动过渡,是冷战后俄罗斯航天体系承接苏联技术的早期产物,具体任务参数仍未完全公开,体现了当时太空军事应用的延续性。

Basic Information
目录编号:
22183
目录名称:
COSMOS 2212
国际标识:
1992-068B
轨道中心:
EARTH
卫星名称:
COSMOS 2212
卫星全名:
--
卫星状态:
在轨 (已飞行12382 天)
发射日期:
1992-10-20 UTC
国别 :
俄罗斯(独联体) (CIS)
星等 :
--
This satellite is enrolled in the Space Conjunction Data Service (SCDS) and the current flight risk assessment level is: No High Risk
Orbit Information
数据来源 国际轨道数据 AOE轨道数据
星历时间 2026-09-14T09:41:14+0800
6小时前
查看轨道信息
2026-09-13T00:00:00+0800
1天前
查看轨道信息
半长轴 7788.099km 7788.099km
偏心率 0.0002077 0.0002139
轨道倾角 82.584° 82.584°
近地点辐角 0.101° 352.789°
升交点赤经 271.992° 272.889°
平近点角 0.008° 107.709°
近地点 1408.344km 1408.296km
远地点 1411.58km 1411.628km
周期 114.001分钟 114.001分钟
每日圈数 12.63152 12.631519
Detailed Information
使用方式:
暂无
2D Orbit Map
3D Orbit Map
Orbit Altitude Analysis Chart
Orbit Inclination Analysis Chart
Orbit Comprehensive Analysis Chart
View Comprehensive Chart
Conjunction Data List
Event ID Objects TCA Miss Dist (km) Collision Risk Probability Collision Risk Index (CRI) Action
CDM_260914-235502-218303-873727
2026-09-14T
23:55:35+0000
2.707 km
极远距离
1.435395E-6 低风险 0.38
CDM_260915-151202-173002-218324
2026-09-15T
15:12:46+0000
2.439 km
极远距离
1.065409E-6 低风险 0.36
Miss Distance Evolution Trend with All Objects Subscribe to Flight Safety Assessment
Collision Probability Evolution Trend with All Objects Subscribe to Flight Safety Assessment